Regional Weather Roundup
Issued by NWS Northern Indiana

Home | Current Version | Previous Version | Text Only | Print | Product List | Glossary On
Versions: 1 2 3 4 5 6 7 8 9 10 11 12 13 14 15 16 17 18 19 20 21 22 23 24 25 26 27 28 29 30 31 32 33 34 35 36 37 38 39 40 41 42 43 44 45 46 47 48 49 50
000
ASUS43 KIWX 122210
RWRIWX

KIWX WEATHER ROUNDUP
NATIONAL WEATHER SERVICE NORTHERN INDIANA
500 PM EST TUE DEC 12 2017

NOTE: "FAIR" INDICATES FEW OR NO CLOUDS BELOW 12,000 FEET WITH NO
SIGNIFICANT WEATHER AND/OR OBSTRUCTIONS TO VISIBILITY.

* THESE STATIONS ARE NOT UNDER NWS QUALITY CONTROL. THEY ALSO MAY NOT
  REPORT WEATHER SUCH AS PRECIPITATION OR FOG.

INZ001>027-122300-
NORTHERN INDIANA

CITY           SKY/WX    TMP DP  RH WIND       PRES   REMARKS
GARY*          PTCLDY    23   7  50 W12G23    30.05S WCI  12
VALPARAISO     MOCLDY    22   8  55 W14       30.01S WCI   9
MICHIGAN CITY* CLOUDY    23  12  63 NW12G18   30.02R WCI  12
LAPORTE*       CLEAR     21  10  62 W7G17     30.00S WCI  12
KNOX*          MOCLDY    21  10  63 NW9       30.01S WCI  11
SOUTH BEND     FLURRIES  20  13  74 W14       29.98R WCI   7
ELKHART*       LGT SNOW  21  12  68 NW12G17   29.96R WCI   9
GOSHEN         CLOUDY    20  13  74 W9        29.95S WCI   9
MONTICELLO*    PTCLDY    23   5  46 NW15      30.02S WCI  10
LOGANSPORT*    CLEAR     23   7  50 NW9       30.02R WCI  13
ROCHESTER*     MOCLDY    23  10  58 W12       30.00R WCI  12
WARSAW*        LGT SNOW  19  16  86 W12G17    29.96S WCI   7
AUBURN*        LGT SNOW  23  14  68 W16       29.93S WCI  10
FORT WAYNE     LGT SNOW  20  16  84 W15       29.95R FOG     WCI   6
HUNTINGTON*    CLOUDY    21  10  63 NW10G20   29.96S WCI  10
PERU/GRISSOM   PTCLDY    22   6  50 NW15      29.98R WCI   9
MARION*        MOCLDY    22   8  54 NW15      29.98S WCI   9

$$
INZ028>050-122300-
CENTRAL INDIANA

CITY           SKY/WX    TMP DP  RH WIND       PRES   REMARKS
LAFAYETTE      CLEAR     23   8  52 NW13G22   30.04R WCI  11
KOKOMO*        CLEAR     23   8  52 NW17      29.99S WCI   9
MUNCIE*        MOCLDY    24   6  46 NW18      29.96S WCI  10
INDIANAPOLIS   PTCLDY    25   7  46 W21G26    30.02R WCI  11

$$
MIZ043>046-050>051-056>058-064>065-071>073-077>080-122300-
SOUTHWEST LOWER MICHIGAN

CITY           SKY/WX    TMP DP  RH WIND       PRES   REMARKS
BATTLE CREEK   MOCLDY    18   5  57 NW8       29.91R WCI   8
BENTON HARBOR  LGT SNOW  23  12  62 NW15G29   29.98R WCI  10
COLDWATER*     CLEAR     18   8  63 NW12G17   29.91R WCI   6
HILLSDALE*     PTCLDY    18   1  49 NW16G22   29.86R WCI   3
HOLLAND        LGT SNOW  20  13  74 N13G22    29.95S WCI   7
GRAND RAPIDS   LGT SNOW  18  11  74 NW15      29.93R WCI   4
KALAMAZOO      LGT SNOW  18  13  80 NW9       29.93S WCI   7
STURGIS*       FLURRIES  18  13  80 NW7       29.92R WCI   9
THREE RIVERS*  LGT SNOW  20  15  79 NW5       29.94R WCI  14

$$
OHZ001>008-015>018-024>025-122300-
NORTHWEST OHIO

CITY           SKY/WX    TMP DP  RH WIND       PRES   REMARKS
WAUSEON*       MOCLDY    19   5  53 NW14G22   29.89R WCI   6
FINDLAY        CLOUDY    22   3  44 NW18G26   29.89R WCI   7
TOLEDO EXPRESS CLEAR     19   5  54 NW9       29.89R WCI   8
TOLEDO METCALF PTCLDY    20   5  52 NW10      29.90S WCI   9
LIMA           MOCLDY    21   9  59 NW23G30   29.89R WCI   5

$$
AND FOR LAKE MICHIGAN COASTAL AND OPEN LAKE BUOY OBSERVATIONS

STATION/POSITION TEMP    WIND        PRES    VSBY  WAVE
                 AIR SEA DIR/SP/G                  HT/PER
                 (F)     (DEG/KT/KT) (MB)    (MI)  (FT/S)
CALUMET HARBOR    21     260/  6/ 15 1016.4R
MICHIGAN CITY     22     280/ 21/ 25   N/A
BURNS HARBOR      23     300/ 16/ 20 1016.9S
SAINT JOSEPH      24     290/ 17/ 26 1015.9

$$
&&



USA.gov is the U.S. government's official web portal to all federal, state and local government web resources and services.